Home > Weather > Metz > Past weeks

Flag for France Past Weather in Metz, Lorraine, France — Yesterday and Last 2 Weeks

Now
59 °F

Clear.


Feels Like: 60 °F
Forecast: 59 / 74 °F
Wind: 3 mph from Southwest

Location: Metz-Nancy-Lorraine

Current Time: Jul 27, 2016 at 5:53:59 AM

Latest Report: Jul 27, 2016 at 5:30 AM


Visibility: 10 mi

Pressure: 30.09 "Hg

Humidity: 88%

Dew Point: 55 °F

Location of MetzLocation

Past Weather in Metz — Graph

°F

Metz Temperature Yesterday

Maximum temperature yesterday: 79 °F (at 4:30 PM)
Minimum temperature yesterday: 61 °F (at 5:30 AM)
Average temperature yesterday: 70 °F

High & Low Weather Summary for the Past Weeks

 TemperatureHumidityPressure
High93 °F (Jul 20, 3:30 PM)100% (Jul 13, 8:00 AM)30.36 "Hg (Jul 13, 8:00 AM)
Low48 °F (Jul 15, 4:30 AM)30% (Jul 20, 2:30 PM)29.92 "Hg (Jul 12, 4:30 PM)
Average69 °F72%30.12 "Hg
* Reported Jul 12 4:00 AM — Jul 27 4:30 AM, Metz, Weather by CustomWeather, © 2016

Note: Actual official high and low records may vary slightly from our data, if they occured in-between our weather recording intervals... More about our weather records

Advertising

Metz Weather History for the Previous 24 Hours

Scroll right to see more
 ConditionsComfort  
Time TempWeatherWind HumidityBarometerVisibility
4:30 AM
Wed, Jul 27
59 °FPassing clouds.3 mph88%30.09 "HgN/A
4:00 AM61 °FPassing clouds.3 mph83%30.09 "HgN/A
3:30 AM61 °FClear.5 mph83%30.12 "Hg10 mi
3:00 AM63 °FClear.3 mph77%30.12 "Hg10 mi
2:30 AM63 °FClear.5 mph77%30.12 "Hg10 mi
2:00 AM61 °FClear.5 mph83%30.12 "Hg10 mi
1:30 AM63 °FClear.3 mph77%30.12 "Hg10 mi
1:00 AM63 °FClear.3 mph77%30.12 "Hg10 mi
12:30 AM64 °FClear.3 mph73%30.12 "Hg10 mi
12:00 AM64 °FClear.3 mph73%30.12 "Hg10 mi
11:30 PM
Tue, Jul 26
66 °FClear.2 mph68%30.12 "Hg10 mi
11:00 PM66 °FClear.2 mph68%30.15 "Hg10 mi
10:30 PM66 °FClear.2 mph68%30.15 "Hg10 mi
10:00 PM66 °FClear.3 mph68%30.12 "HgN/A
9:30 PM68 °FSunny.6 mph69%30.12 "Hg10 mi
9:00 PM70 °FSunny.7 mph64%30.12 "Hg10 mi
8:30 PM73 °FPassing clouds.9 mph57%30.12 "HgN/A
8:00 PM73 °FSunny.12 mph57%30.12 "Hg10 mi
7:30 PM75 °FPassing clouds.13 mph54%30.12 "HgN/A
7:00 PM75 °FScattered clouds.9 mph57%30.12 "HgN/A
6:30 PM75 °FPartly sunny.7 mph57%30.12 "HgN/A
6:00 PM77 °FSunny.10 mph57%30.12 "Hg10 mi
5:30 PM77 °FScattered clouds.10 mph57%30.12 "HgN/A
5:00 PM77 °FPassing clouds.12 mph61%30.12 "HgN/A
4:30 PM79 °FScattered clouds.9 mph61%30.12 "HgN/A
4:00 PM77 °FScattered clouds.12 mph61%30.12 "HgN/A
3:30 PM77 °FPartly sunny.12 mph61%30.12 "HgN/A
3:00 PM77 °FPartly sunny.12 mph65%30.12 "HgN/A
2:30 PM77 °FBroken clouds.9 mph61%30.12 "HgN/A
2:00 PM77 °FBroken clouds.10 mph61%30.12 "HgN/A
1:30 PM77 °FPartly sunny.10 mph61%30.15 "HgN/A
1:00 PM77 °FPartly sunny.7 mph61%30.15 "HgN/A
12:30 PM77 °FPassing clouds.6 mph61%30.15 "HgN/A
12:00 PM75 °FScattered clouds.6 mph65%30.15 "HgN/A
11:30 AM75 °FMostly cloudy.8 mph69%30.15 "HgN/A
11:00 AM75 °FPartly sunny.7 mph69%30.15 "HgN/A
10:30 AM73 °FPassing clouds.3 mph69%30.15 "HgN/A
10:00 AM73 °FSunny.2 mph69%30.15 "Hg10 mi
9:30 AM72 °FSunny.2 mph78%30.15 "Hg10 mi
9:00 AM70 °FSunny.3 mph78%30.15 "Hg10 mi
8:30 AM66 °FPassing clouds.3 mph88%30.15 "HgN/A
8:00 AM66 °FSunny.No wind88%30.15 "Hg10 mi
7:30 AM66 °FSunny.2 mph88%30.12 "Hg10 mi
7:00 AM64 °FSunny.2 mph94%30.12 "Hg10 mi
6:30 AM63 °FClear.1 mph94%30.12 "Hg10 mi
6:00 AM61 °FPassing clouds.3 mph94%30.12 "HgN/A
5:30 AM61 °FClear.5 mph94%30.12 "Hg10 mi
5:00 AM63 °FPassing clouds.6 mph88%30.12 "HgN/A
Weather by CustomWeather, © 2016

See weather overviewHow to use our weather pages